DW6016 Weather Reports


Display with metric or nautical units.
time (UTC)temp
F
wind
direction
speed
MPH
gust
MPH
rain 1hr
in
rain 24hr
in
rain mn
in
humidity
%
barometer
mb
20240523120331 44 314 0.0 0.0 0.00 0.00 0.00 99 1023.1
20240523115830 44 314 0.0 0.0 0.00 0.00 0.00 99 1023.0
20240523115328 44 314 0.0 0.0 0.00 0.00 0.00 99 1023.2
20240523114827 44 314 0.0 0.0 0.00 0.00 0.00 99 1023.2
20240523114326 44 314 0.0 0.0 0.00 0.00 0.00 99 1023.1
20240523113825 44 314 0.0 0.0 0.00 0.00 0.00 99 1023.2
20240523113324 44 314 0.0 0.0 0.00 0.00 0.00 99 1022.9
20240523112824 44 314 0.0 0.0 0.00 0.00 0.00 99 1023.0
20240523112323 44 314 0.0 0.0 0.00 0.00 0.00 99 1023.1
20240523111823 44 314 0.0 0.0 0.00 0.00 0.00 99 1022.9
20240523111322 45 314 0.0 0.0 0.00 0.00 0.00 99 1022.9
20240523110822 45 315 0.0 0.0 0.00 0.00 0.00 99 1022.9
20240523110321 45 314 0.0 0.0 0.00 0.00 0.00 99 1023.0
20240523105820 45 314 0.0 0.0 0.00 0.00 0.00 99 1023.0
20240523105318 45 314 0.0 0.0 0.00 0.00 0.00 99 1023.0
20240523104817 46 314 0.0 0.0 0.00 0.00 0.00 99 1022.8
20240523104316 46 314 0.0 0.0 0.00 0.00 0.00 99 1022.8
20240523103814 46 314 0.0 0.0 0.00 0.00 0.00 99 1022.7
20240523103314 47 314 0.0 0.0 0.00 0.00 0.00 99 1022.7
20240523102812 47 314 0.0 0.0 0.00 0.00 0.00 99 1023.0
20240523102311 47 315 0.0 0.0 0.00 0.00 0.00 99 1022.9
20240523101810 47 315 0.0 0.0 0.00 0.00 0.00 99 1023.0
20240523101252 47 315 0.0 0.0 0.00 0.00 0.00 98 1022.7
20240523100750 47 315 0.0 0.0 0.00 0.00 0.00 98 1022.9
20240523100249 47 304 0.0 0.0 0.00 0.00 0.00 98 1022.8
20240523095747 47 304 0.0 0.0 0.00 0.00 0.00 98 1022.9
20240523095245 47 304 0.0 0.0 0.00 0.00 0.00 98 1023.1
20240523094744 47 304 0.0 0.0 0.00 0.00 0.00 97 1023.0
20240523094243 48 304 0.0 0.0 0.00 0.00 0.00 97 1022.9
20240523093743 47 304 0.0 0.0 0.00 0.00 0.00 97 1023.0
20240523093242 48 304 0.0 0.0 0.00 0.00 0.00 96 1023.0
20240523092741 48 304 0.0 0.0 0.00 0.00 0.00 96 1023.0
20240523092240 48 304 0.0 0.0 0.00 0.00 0.00 96 1023.2
20240523091740 48 304 0.0 0.0 0.00 0.00 0.00 95 1023.1
20240523091238 48 304 0.0 0.0 0.00 0.00 0.00 95 1022.9
20240523090738 48 304 0.0 0.0 0.00 0.00 0.00 95 1022.8
20240523090236 49 304 0.0 0.0 0.00 0.00 0.00 94 1022.8
20240523085734 49 304 0.0 0.0 0.00 0.00 0.00 94 1023.1
20240523085233 49 304 0.0 0.0 0.00 0.00 0.00 93 1023.0
20240523084732 49 304 0.0 0.0 0.00 0.00 0.00 93 1023.0
20240523084230 49 304 0.0 0.0 0.00 0.00 0.00 93 1023.0
20240523083729 49 304 0.0 0.0 0.00 0.00 0.00 93 1023.0
20240523083227 49 295 0.0 0.0 0.00 0.00 0.00 92 1022.9
20240523082725 49 278 1.0 1.0 0.00 0.00 0.00 92 1023.1
20240523082225 49 308 0.0 0.0 0.00 0.00 0.00 93 1023.0
20240523081724 49 308 0.0 0.0 0.00 0.00 0.00 93 1023.0
20240523081221 50 308 0.0 0.0 0.00 0.00 0.00 92 1023.1
20240523080721 50 308 0.0 0.0 0.00 0.00 0.00 92 1023.0
20240523080220 50 318 0.0 0.0 0.00 0.00 0.00 93 1022.9
20240523075719 50 318 0.0 0.0 0.00 0.00 0.00 93 1022.8
20240523075219 50 299 0.0 0.0 0.00 0.00 0.00 93 1022.8
20240523074719 50 299 0.0 0.0 0.00 0.00 0.00 93 1022.9
20240523074217 50 299 0.0 0.0 0.00 0.00 0.00 92 1023.2
20240523073715 50 299 0.0 0.0 0.00 0.00 0.00 92 1023.1
20240523073211 50 299 0.0 0.0 0.00 0.00 0.00 92 1023.1
20240523072710 50 299 0.0 0.0 0.00 0.00 0.00 91 1022.9
20240523072209 50 299 0.0 0.0 0.00 0.00 0.00 91 1023.0
20240523071708 50 301 0.0 0.0 0.00 0.00 0.00 92 1023.0
20240523071207 50 290 0.0 0.0 0.00 0.00 0.00 93 1022.8
20240523070706 50 290 0.0 0.0 0.00 0.00 0.00 93 1022.8
20240523070203 50 290 0.0 0.0 0.00 0.00 0.00 92 1022.7
20240523065703 50 290 0.0 0.0 0.00 0.09 0.09 92 1022.9
20240523065203 50 290 0.0 0.0 0.00 0.09 0.09 92 1022.8
20240523064701 50 290 0.0 0.0 0.00 0.09 0.09 92 1022.8
20240523064200 50 290 0.0 0.0 0.00 0.09 0.09 92 1023.0
20240523063659 50 290 0.0 0.0 0.00 0.09 0.09 91 1022.8
20240523063158 50 290 0.0 0.0 0.00 0.09 0.09 91 1022.7
20240523062656 50 290 0.0 0.0 0.00 0.09 0.09 91 1022.8
20240523062155 51 290 0.0 0.0 0.00 0.09 0.09 91 1022.9
20240523061653 51 290 0.0 0.0 0.00 0.09 0.09 90 1022.6
20240523061151 51 290 0.0 0.0 0.00 0.09 0.09 90 1022.6
20240523060651 51 290 0.0 0.0 0.00 0.09 0.09 90 1022.6
20240523060150 51 290 0.0 0.0 0.00 0.09 0.09 89 1022.7
20240523055648 51 290 0.0 0.0 0.00 0.09 0.09 90 1022.7
20240523055145 51 290 0.0 0.0 0.00 0.09 0.09 89 1022.7
20240523054644 51 290 0.0 0.0 0.00 0.09 0.09 89 1022.6
20240523054143 51 290 0.0 0.0 0.00 0.09 0.09 89 1022.5
20240523053642 51 290 0.0 0.0 0.00 0.09 0.09 88 1022.3
20240523053141 51 290 0.0 0.0 0.00 0.09 0.09 88 1022.3
20240523052639 51 290 0.0 0.0 0.00 0.09 0.09 87 1022.4
20240523052139 51 290 0.0 0.0 0.00 0.09 0.09 86 1022.3
20240523051638 52 290 0.0 0.0 0.00 0.09 0.09 86 1022.4
20240523051138 51 294 0.0 0.0 0.00 0.09 0.09 86 1022.2
20240523050637 52 300 0.0 0.0 0.00 0.09 0.09 86 1022.0
20240523050135 52 300 0.0 0.0 0.00 0.09 0.09 86 1022.2
20240523045633 52 300 0.0 0.0 0.00 0.09 0.09 86 1022.1
20240523045131 52 306 0.0 0.0 0.00 0.09 0.09 85 1021.9
20240523044631 52 307 0.0 0.0 0.00 0.09 0.09 85 1021.9
20240523044130 52 308 0.0 0.0 0.00 0.09 0.09 86 1021.8
20240523043629 52 311 0.0 0.0 0.00 0.09 0.09 86 1021.8
20240523043127 52 311 0.0 0.0 0.00 0.09 0.09 87 1021.4
20240523042626 52 311 0.0 0.0 0.00 0.09 0.09 87 1021.4
20240523042125 52 312 0.0 0.0 0.00 0.09 0.09 86 1021.5
20240523041624 52 311 0.0 0.0 0.00 0.09 0.09 86 1021.5
20240523041122 52 311 0.0 0.0 0.00 0.09 0.09 86 1021.4
20240523040621 52 307 0.0 0.0 0.00 0.09 0.09 85 1021.3
20240523040118 52 309 0.0 0.0 0.00 0.09 0.09 85 1021.0
20240523035617 52 310 0.0 0.0 0.00 0.09 0.09 84 1021.1
20240523035115 53 310 0.0 0.0 0.00 0.09 0.09 82 1021.1
20240523034612 53 290 1.0 1.0 0.00 0.09 0.09 81 1020.9
20240523034111 53 313 0.0 0.0 0.00 0.09 0.09 81 1020.8
20240523033610 53 317 0.0 0.0 0.00 0.09 0.09 81 1020.8
20240523033109 53 317 0.0 1.0 0.00 0.09 0.09 81 1020.7
20240523032608 54 317 0.0 0.0 0.00 0.09 0.09 80 1020.6
20240523032106 54 312 0.0 0.0 0.00 0.09 0.09 79 1020.7
20240523031605 54 319 0.0 0.0 0.00 0.09 0.09 79 1020.5
20240523031104 54 310 3.0 5.0 0.00 0.09 0.09 78 1020.7
20240523030603 55 316 0.0 0.0 0.00 0.09 0.09 79 1020.8
20240523030100 55 339 1.0 1.0 0.00 0.09 0.09 79 1020.7
20240523025559 55 302 0.0 1.0 0.00 0.09 0.09 78 1020.7
20240523025058 55 310 1.0 2.0 0.00 0.09 0.09 78 1020.6
20240523024557 55 323 0.0 1.0 0.00 0.09 0.09 78 1020.6
20240523024055 55 270 3.0 3.0 0.00 0.09 0.09 76 1020.6
20240523023555 55 301 2.0 3.0 0.00 0.09 0.09 75 1020.5
20240523023053 56 309 0.0 0.0 0.00 0.09 0.09 75 1020.6
20240523022552 56 319 0.0 0.0 0.00 0.09 0.09 75 1020.4
20240523022052 56 301 1.0 1.0 0.00 0.09 0.09 77 1020.5
20240523021551 56 255 1.0 1.0 0.00 0.09 0.09 76 1020.4
20240523021050 57 303 0.0 0.0 0.00 0.09 0.09 74 1020.4
20240523020549 58 301 2.0 2.0 0.00 0.09 0.09 71 1020.4
20240523020047 59 322 4.0 7.0 0.00 0.09 0.09 68 1020.3
20240523015546 58 306 3.0 6.0 0.00 0.09 0.09 67 1020.2
20240523015045 57 308 0.0 0.0 0.00 0.09 0.09 75 1020.1
20240523014544 56 319 3.0 3.0 0.00 0.09 0.09 71 1020.1
20240523014042 57 288 1.0 1.0 0.00 0.09 0.09 73 1019.9
20240523013542 58 312 1.0 2.0 0.00 0.09 0.09 70 1019.9
20240523013041 58 308 0.0 0.0 0.00 0.09 0.09 73 1019.8
20240523012540 58 314 1.0 1.0 0.00 0.09 0.09 71 1019.6
20240523012039 58 315 2.0 2.0 0.00 0.09 0.09 70 1020.1
20240523011537 59 305 0.0 0.0 0.00 0.09 0.09 71 1019.9
20240523011036 58 308 0.0 0.0 0.00 0.09 0.09 74 1019.7
20240523010535 58 311 0.0 0.0 0.00 0.09 0.09 73 1019.7
20240523010034 57 305 0.0 1.0 0.00 0.09 0.09 73 1019.6
20240523005534 57 324 0.0 1.0 0.00 0.09 0.09 73 1019.6
20240523005032 57 295 0.0 1.0 0.00 0.09 0.09 77 1019.7
20240523004531 57 156 2.0 3.0 0.00 0.09 0.09 76 1019.5
20240523004030 57 303 1.0 2.0 0.00 0.09 0.09 72 1019.6
20240523003529 57 307 5.0 6.0 0.00 0.09 0.09 70 1019.5
20240523003025 58 301 1.0 1.0 0.00 0.09 0.09 73 1019.3
20240523002525 58 303 0.0 1.0 0.00 0.09 0.09 75 1019.6
20240523002024 58 306 0.0 0.0 0.00 0.09 0.09 75 1019.3
20240523001519 58 311 0.0 0.0 0.00 0.09 0.09 75 1019.4
20240523001019 58 136 2.0 3.0 0.00 0.09 0.09 72 1019.2
20240523000519 58 329 5.0 6.0 0.00 0.09 0.09 71 1019.3
20240523000017 58 314 0.0 1.0 0.00 0.09 0.09 75 1019.1
20240522235515 58 313 2.0 3.0 0.00 0.09 0.09 74 1019.2
20240522235014 58 304 0.0 1.0 0.00 0.09 0.09 76 1019.2
20240522234512 56 302 2.0 3.0 0.00 0.09 0.09 74 1019.0
20240522234012 56 358 1.0 1.0 0.00 0.09 0.09 78 1019.1
20240522233511 56 262 2.0 2.0 0.00 0.09 0.09 79 1019.0
20240522233007 56 317 1.0 2.0 0.00 0.09 0.09 79 1018.9
20240522232506 56 309 0.0 0.0 0.00 0.09 0.09 79 1018.9
20240522232005 56 305 0.0 0.0 0.00 0.09 0.09 80 1018.7
20240522231504 56 292 1.0 1.0 0.00 0.09 0.09 82 1018.8
20240522231003 57 309 0.0 1.0 0.00 0.09 0.09 83 1018.9
20240522230501 57 317 0.0 1.0 0.00 0.09 0.09 83 1018.9
20240522230001 57 310 0.0 0.0 0.00 0.09 0.09 82 1018.8
20240522225458 57 309 0.0 0.0 0.00 0.09 0.09 82 1018.7
20240522224957 56 318 0.0 0.0 0.00 0.09 0.09 86 1018.8
20240522224456 55 316 1.0 2.0 0.00 0.09 0.09 84 1018.7
20240522223955 54 313 2.0 2.0 0.00 0.09 0.09 89 1018.8
20240522223455 53 328 1.0 1.0 0.04 0.09 0.09 88 1019.0
20240522222956 54 314 0.0 0.0 0.04 0.09 0.09 87 1019.0
20240522222455 55 303 2.0 2.0 0.00 0.08 0.08 85 1018.9
20240522221953 56 307 1.0 2.0 0.00 0.08 0.08 84 1018.9
20240522221453 55 302 0.0 0.0 0.00 0.08 0.08 83 1018.8
20240522220952 56 309 0.0 1.0 0.00 0.08 0.08 83 1019.0
20240522220451 56 298 0.0 0.0 0.00 0.08 0.08 80 1018.6
20240522215949 56 305 0.0 0.0 0.00 0.08 0.08 81 1018.7
20240522215449 55 306 3.0 3.0 0.00 0.08 0.08 76 1018.4
20240522214947 55 307 0.0 0.0 0.00 0.08 0.08 83 1018.5
20240522214446 55 297 4.0 5.0 0.07 0.08 0.08 82 1018.7
20240522213945 55 311 0.0 0.0 0.07 0.08 0.08 83 1018.4
20240522213443 54 296 0.0 0.0 0.00 0.07 0.07 85 1018.5
20240522212942 54 310 0.0 0.0 0.00 0.07 0.07 84 1018.5
20240522212442 54 320 1.0 1.0 0.00 0.07 0.07 84 1018.5
20240522211941 53 310 0.0 0.0 0.00 0.07 0.07 81 1018.6
20240522211439 54 322 1.0 1.0 0.00 0.07 0.07 83 1018.4
20240522210939 53 309 0.0 0.0 0.00 0.07 0.07 86 1018.4
20240522210438 53 317 0.0 0.0 0.00 0.07 0.07 84 1018.4
20240522205937 53 304 0.0 0.0 0.00 0.07 0.07 88 1018.4
20240522205436 53 309 0.0 0.0 0.00 0.07 0.07 85 1018.6
20240522204935 53 307 0.0 1.0 0.00 0.07 0.07 80 1018.5
20240522204436 53 307 1.0 1.0 0.00 0.07 0.07 77 1018.4
20240522203935 53 306 2.0 2.0 0.00 0.07 0.07 76 1018.2
20240522203433 54 308 3.0 6.0 0.00 0.07 0.07 75 1018.0
20240522202931 55 314 1.0 2.0 0.00 0.07 0.07 72 1017.8
20240522202430 56 313 0.0 0.0 0.00 0.07 0.07 73 1017.7
20240522201930 56 315 3.0 5.0 0.00 0.07 0.07 70 1017.8
20240522201426 55 308 0.0 0.0 0.00 0.07 0.07 77 1017.7
20240522200925 54 312 0.0 0.0 0.04 0.07 0.07 78 1017.6
20240522200424 53 303 0.0 0.0 0.04 0.07 0.07 79 1017.7
20240522195922 55 304 1.0 1.0 0.00 0.06 0.06 81 1018.0
20240522195421 55 313 0.0 0.0 0.00 0.06 0.06 83 1017.9
20240522194920 54 327 0.0 0.0 0.00 0.06 0.06 84 1017.4
20240522194420 53 301 0.0 0.0 0.00 0.06 0.06 85 1017.6
20240522193919 53 302 0.0 0.0 0.00 0.06 0.06 89 1017.7
20240522193418 52 302 0.0 1.0 0.00 0.06 0.06 89 1017.7
20240522192916 52 312 0.0 0.0 0.00 0.06 0.06 89 1017.8
20240522192415 52 307 0.0 1.0 0.00 0.06 0.06 90 1017.7
20240522191914 52 313 0.0 0.0 0.00 0.06 0.06 87 1017.8
20240522191412 53 316 0.0 0.0 0.00 0.06 0.06 82 1017.8
20240522190911 52 296 0.0 1.0 0.00 0.06 0.06 85 1017.7
20240522190410 51 291 0.0 0.0 0.00 0.06 0.06 86 1017.5
20240522185910 51 313 0.0 0.0 0.07 0.06 0.06 87 1017.8
20240522185410 51 340 0.0 1.0 0.07 0.06 0.06 87 1017.8
20240522184909 51 296 3.0 3.0 0.00 0.05 0.05 82 1017.9
20240522184408 53 312 1.0 2.0 0.00 0.05 0.05 80 1017.8
20240522183906 53 302 1.0 1.0 0.00 0.05 0.05 75 1017.5
20240522183405 53 277 1.0 1.0 0.00 0.05 0.05 73 1017.5
20240522182904 53 313 6.0 10.0 0.00 0.05 0.05 72 1017.3
20240522182403 54 305 2.0 3.0 0.00 0.05 0.05 73 1017.2
20240522181902 54 328 0.0 1.0 0.00 0.05 0.05 75 1017.3
20240522181401 55 307 2.0 2.0 0.00 0.05 0.05 70 1017.2
20240522180859 55 322 0.0 1.0 0.00 0.05 0.05 75 1017.2
20240522180358 54 290 1.0 1.0 0.00 0.05 0.05 79 1017.5
20240522175857 53 307 0.0 0.0 0.00 0.05 0.05 78 1017.5
20240522175356 55 325 1.0 2.0 0.00 0.05 0.05 74 1017.4
20240522174854 55 319 2.0 2.0 0.00 0.05 0.05 69 1017.5
20240522174354 55 311 1.0 1.0 0.00 0.05 0.05 72 1017.3
20240522173852 56 303 1.0 1.0 0.00 0.05 0.05 70 1017.2
20240522173351 55 305 1.0 1.0 0.00 0.05 0.05 70 1017.4
20240522172850 54 139 2.0 3.0 0.00 0.05 0.05 75 1017.6
20240522172349 54 322 0.0 0.0 0.00 0.05 0.05 77 1017.4
20240522171849 54 3 0.0 1.0 0.00 0.05 0.05 77 1017.5
20240522171348 54 325 1.0 2.0 0.00 0.05 0.05 78 1017.4
20240522170847 55 308 1.0 2.0 0.00 0.05 0.05 78 1017.5
20240522170345 56 301 1.0 1.0 0.00 0.05 0.05 78 1017.6
20240522165843 55 309 0.0 1.0 0.00 0.05 0.05 78 1017.6
20240522165342 55 312 0.0 0.0 0.00 0.05 0.05 78 1017.8
20240522164841 55 309 0.0 0.0 0.00 0.05 0.05 80 1017.8
20240522164339 53 329 1.0 3.0 0.00 0.05 0.05 82 1017.6
20240522163839 52 323 0.0 0.0 0.00 0.05 0.05 82 1017.6
20240522163337 52 307 1.0 2.0 0.00 0.05 0.05 77 1017.6
20240522162837 52 307 1.0 1.0 0.00 0.05 0.05 83 1017.4
20240522162337 52 304 3.0 3.0 0.00 0.05 0.05 80 1017.6
20240522161835 53 342 3.0 3.0 0.00 0.05 0.05 80 1017.4
20240522161333 54 322 0.0 1.0 0.00 0.05 0.05 83 1017.2
20240522160831 56 251 1.0 2.0 0.00 0.05 0.05 82 1017.5
20240522160331 55 280 0.0 1.0 0.00 0.05 0.05 82 1017.5
20240522155829 55 45 1.0 1.0 0.00 0.05 0.05 81 1017.2
20240522155328 53 313 0.0 0.0 0.00 0.05 0.05 86 1017.2
20240522154828 53 140 1.0 2.0 0.00 0.05 0.05 88 1017.4
20240522154325 53 299 0.0 1.0 0.00 0.05 0.05 87 1017.6
20240522153825 52 313 1.0 1.0 0.00 0.05 0.05 86 1017.6
20240522153322 52 299 1.0 1.0 0.00 0.05 0.05 91 1017.5
20240522152821 51 321 0.0 0.0 0.00 0.05 0.05 96 1017.5
20240522152320 49 322 1.0 1.0 0.00 0.05 0.05 96 1017.7
20240522151817 49 307 0.0 0.0 0.00 0.05 0.05 97 1017.7
20240522151316 49 313 0.0 0.0 0.00 0.05 0.05 98 1017.3
20240522150816 49 299 0.0 0.0 0.00 0.05 0.05 98 1017.7
20240522150315 49 303 0.0 0.0 0.00 0.05 0.05 99 1017.5
20240522145814 50 320 0.0 0.0 0.00 0.05 0.05 99 1017.5
20240522145313 49 306 0.0 0.0 0.00 0.05 0.05 99 1017.4
20240522144811 49 304 0.0 1.0 0.00 0.05 0.05 99 1017.4
20240522144310 49 309 0.0 0.0 0.00 0.05 0.05 99 1017.5
20240522143806 49 307 0.0 0.0 0.00 0.05 0.05 99 1017.5
20240522143304 48 312 0.0 0.0 0.00 0.05 0.05 99 1017.3
20240522142802 48 307 0.0 0.0 0.00 0.05 0.05 99 1017.3
20240522142302 50 317 0.0 1.0 0.00 0.05 0.05 99 1017.3
20240522141800 49 307 0.0 0.0 0.00 0.05 0.05 99 1017.0
20240522141259 48 283 0.0 1.0 0.00 0.05 0.05 99 1016.9
20240522140759 46 283 0.0 0.0 0.00 0.05 0.05 99 1017.0
20240522140258 46 286 0.0 0.0 0.00 0.05 0.05 99 1017.0
20240522135756 46 285 0.0 0.0 0.00 0.05 0.05 99 1017.1
20240522135256 46 285 0.0 0.0 0.00 0.05 0.05 99 1017.2
20240522134754 46 285 0.0 0.0 0.00 0.05 0.05 99 1017.2
20240522134253 46 285 0.0 0.0 0.00 0.05 0.05 99 1017.1
20240522133751 46 285 0.0 0.0 0.00 0.05 0.05 99 1017.3
20240522133252 46 285 0.0 0.0 0.00 0.05 0.05 99 1017.1
20240522132751 45 285 0.0 0.0 0.00 0.05 0.05 99 1017.3
20240522132250 45 285 0.0 0.0 0.00 0.05 0.05 99 1017.1
20240522131750 45 285 0.0 0.0 0.00 0.05 0.05 99 1017.1
20240522131249 45 285 0.0 0.0 0.00 0.05 0.05 99 1016.9
20240522130748 45 285 0.0 0.0 0.00 0.05 0.05 99 1016.7
20240522130247 44 285 0.0 0.0 0.00 0.05 0.05 99 1016.8
20240522125746 44 285 0.0 0.0 0.00 0.05 0.05 99 1016.8
20240522125244 44 285 0.0 0.0 0.00 0.05 0.05 99 1016.7
20240522124742 44 285 0.0 0.0 0.00 0.05 0.05 99 1016.5
20240522124240 45 285 0.0 0.0 0.00 0.05 0.05 99 1016.7
20240522123739 45 285 0.0 0.0 0.00 0.05 0.05 99 1016.5
20240522123239 45 285 0.0 0.0 0.00 0.05 0.05 99 1016.6
20240522122734 46 285 0.0 0.0 0.00 0.05 0.05 99 1016.5
20240522122234 46 285 0.0 0.0 0.00 0.05 0.05 99 1016.7
20240522121733 46 285 0.0 0.0 0.00 0.05 0.05 99 1016.6
20240522121231 46 297 0.0 0.0 0.00 0.05 0.05 99 1016.7
20240522120730 46 294 0.0 0.0 0.00 0.05 0.05 99 1016.7